Location: Newark
(3.1475°N, 101.6933°E)
Time: 09:01:45
(UTC+00:00)

Hubble Space Telescope - Pass Details

Date: 18 October 2019
Orbit: 536 x 540 km, 28.5° (Epoch: 17 November)

Event Time Altitude Azimuth Distance (km) Brightness Sun altitude
Rises 22:19:45 0° 212° (SSW) 2,670 4.1 -10.0°
Reaches altitude 10° 22:22:42 10° 190° (S) 1,779 3.4 -9.3°
Maximum altitude 22:25:19 16° 151° (SSE) 1,426 3.5 -8.7°
Drops below altitude 10° 22:27:55 10° 111° (ESE) 1,776 5.0 -8.0°
Sets 22:30:52 0° 89° (E) 2,665 6.5 -7.3°
